Regional Weather Roundup
Issued by NWS

Home | Current Version | Previous Version | Graphics & Text | Print | Product List | Glossary On
Versions: 1 2 3 4 5 6 7 8 9 10 11 12 13 14 15 16 17 18 19 20 21 22 23 24 25 26 27 28 29 30 31 32 33 34 35 36 37 38 39 40 41 42 43 44 45 46 47 48 49 50
000
ASUS43 KOAX 031110
RWRNE

WEATHER ROUNDUP FOR NEBRASKA
NATIONAL WEATHER SERVICE OMAHA NE
600 AM CDT SUN MAY 03 2015

NOTES: SATELLITE DATA IS BEING USED TO AUGMENT CLOUD COVER ABOVE
       12000 FEET.
       "FAIR" INDICATES FEW OR NO CLOUDS BELOW 12,000 FEET WITH NO
       SIGNIFICANT WEATHER AND/OR OBSTRUCTIONS TO VISIBILITY.

  * THESE STATIONS DO NOT REPORT WEATHER SUCH AS RAIN...SNOW OR FOG.

NEZ001>004-019>022-054>056-031200-
NEBRASKA PANHANDLE

CITY           SKY/WX    TMP DP  RH WIND       PRES   REMARKS
SCOTTSBLUFF    CLEAR     50  41  71 N9        29.82R
ALLIANCE       PTCLDY    41  38  89 SE7       29.79R
CHADRON        MOCLDY    41  37  86 CALM      29.80R
KIMBALL        CLEAR     48  41  76 W9        29.86S
SIDNEY         PTCLDY    48  41  76 W7        29.84S
$$

NEZ057>060-069>072-079>082-031200-
SOUTHWEST NEBRASKA

CITY           SKY/WX    TMP DP  RH WIND       PRES   REMARKS
NORTH PLATTE   PTCLDY    44  42  93 W3        29.77S
IMPERIAL       CLEAR     52  41  66 W5        29.79S
LEXINGTON      PTCLDY    49  44  83 CALM      29.75F
MCCOOK         PTCLDY    53  44  71 W5        29.77S
OGALLALA       CLEAR     50  44  81 W8        29.78S
$$

NEZ005>010-023>029-035>040-094-031200-
NORTH CENTRAL NEBRASKA

CITY           SKY/WX    TMP DP  RH WIND       PRES   REMARKS
VALENTINE      PTCLDY    43  39  86 W6        29.72R
AINSWORTH      MOCLDY    50  45  82 SW7       29.71R
BROKEN BOW     MOCLDY    59  43  55 W10       29.72S
O`NEILL        PTCLDY    56  55  93 SE9       29.70S
ORD            PTCLDY    48  43  82 SW3       29.70S
THEDFORD       MOCLDY    57  45  62 W7        29.74S
$$

NEZ041-046>049-061>064-073>077-083>087-031200-
SOUTH CENTRAL NEBRASKA

CITY           SKY/WX    TMP DP  RH WIND       PRES   REMARKS
GRAND ISLAND   MOCLDY    56  51  84 SE8       29.74R
AURORA         MOCLDY    58  54  86 SE7       29.74R
HASTINGS       MOCLDY    58  50  75 SW6       29.73R
HEBRON         MOCLDY    58  52  80 E3        29.75R
HOLDREGE       PTCLDY    57  44  61 NW6       29.74F
KEARNEY *      MOCLDY    59  45  58 SW9       29.74S
YORK           PTCLDY    59  54  82 SE13      29.74F
$$

NEZ011>018-030>034-042>045-031200-
NORTHEAST NEBRASKA

CITY           SKY/WX    TMP DP  RH WIND       PRES   REMARKS
NORFOLK        PTCLDY    61  52  72 S13       29.71F
ALBION         PTCLDY    56  51  84 S8        29.73R
BLAIR          PTCLDY    59  53  80 S16       29.73F
COLUMBUS *     CLEAR     61  50  67 S12       29.74F
FREMONT        CLEAR     62  53  71 SE12      29.73F
TEKAMAH        CLEAR     58  53  84 S15       29.71F
WAYNE          CLEAR     56  51  84 S8        29.72F
$$

NEZ050>053-065>068-078-088>093-031200-
SOUTHEAST NEBRASKA

CITY           SKY/WX    TMP DP  RH WIND       PRES   REMARKS
LINCOLN        PTCLDY    62  54  74 SE12      29.76F
OMAHA EPPLEY   MOCLDY    61  56  83 S14       29.74F
BEATRICE       PTCLDY    60  54  78 E7        29.77S
FALLS CITY     PTCLDY    58  53  84 E8        29.82S
NEBRASKA CITY  CLEAR     59  52  78 SE8       29.80F
PLATTSMOUTH    CLEAR     60  55  82 S12       29.77F
$$

NEZ044-045-051>053-067-031200-
OMAHA AREA

CITY           SKY/WX    TMP DP  RH WIND       PRES   REMARKS
OMAHA EPPLEY   MOCLDY    61  56  83 S14       29.74F
BLAIR          PTCLDY    59  53  80 S16       29.73F
FREMONT        CLEAR     62  53  71 SE12      29.73F
MILLARD        CLEAR     61  55  81 S6        29.75F
OFFUTT AFB     CLEAR     59  56  89 SE7       29.75F
PLATTSMOUTH    CLEAR     60  55  82 S12       29.77F
WAHOO          FAIR      60  52  77 S14       29.74F
$$


USA.gov is the U.S. government's official web portal to all federal, state and local government web resources and services.